719  
ASUS44 KEWX 222011  
RWREWX  
SOUTH TEXAS REGIONAL WEATHER ROUNDUP  
NATIONAL WEATHER SERVICE AUSTIN/SAN ANTONIO TX  
300 PM CDT FRI JUN 22 2018  
 
NOTE: "FAIR" INDICATED FEW OR NO CLOUDS BELOW 12,000 FEET WITH NO  
SIGNIFICANT WEATHER AND/OR S TO VISIBILITY
.  
 
* - THESE STATIONS ARE NOT NWS OR FAA STATIONS...AND ARE NOT SUBJECT  
TO NWS AND FAA QUALITY CONTROL.
 
 
TXZ171-172-183>190-222100-  
TEXAS HILL COUNTRY AND EDWARDS PLATEAU  
 
CITY SKY/WX TMP DP RH WIND PRES REMARKS
 
JUNCTION LGT RAIN 98 64 32 S6G20 29.88F HX 100  
*LLANO N/A N/A N/A N/A MISG N/A  
BURNET SUNNY 96 70 42 MISG 29.90F HX 102  
*HORSESHOE BAY SUNNY 97 65 34 S3 29.86F HX 100  
*KERRVILLE MOSUNNY 94 69 44 S14 29.92F HX 99  
*FREDERICKSBRG SUNNY 94 63 35 S13 29.91F HX 95  
*ROCKSPRINGS MOSUNNY 90 66 45 SE12G18 29.99F HX 92  
*BOERNE STAGE PTSUNNY 91 68 46 SW9G18 29.93F HX 95  
*CASTROVILLE PTSUNNY 94 66 38 S12G18 29.89F HX 97  
HONDO PTSUNNY 95 71 45 S7 29.88F HX 102  
*UVALDE SUNNY 95 68 41 S7 29.88F HX 99  
DEL RIO MOSUNNY 96 70 42 SE18G25 29.83F HX 102  
LAUGHLIN AFB PTSUNNY 96 68 39 S18G26 29.84F HX 101  
CARRIZO SPRGS MOSUNNY 97 68 38 SE12G18 29.83F HX 101  
*EAGLE PASS PTCLDY 100 64 30 S10G17 29.84F HX 103  
*FAITH RANCH MOSUNNY 97 68 38 S10G21 29.86F HX 101  

 
 
TXZ173-191>194-202-209-217>225-228-222100-  
CENTRAL AND SOUTH CENTRAL TEXAS  
 
CITY SKY/WX TMP DP RH WIND PRES REMARKS
 
GEORGETOWN SUNNY 97 71 42 S13 29.87F HX 104  
AUSTIN/BERGSTM SUNNY 96 72 45 S9G20 29.86F HX 104  
AUSTIN/MABRY MOSUNNY 99 70 38 VRB5 29.87F HX 106  
*AUSTIN/EXEC SUNNY 93 73 52 S8 29.87F HX 102  
*LAGO VISTA MOSUNNY 96 67 37 SE5 29.90F HX 100  
SAN MARCOS MOSUNNY 95 74 50 SW12 29.88F HX 105  
NEW BRAUNFELS MOSUNNY 95 71 45 S9 29.86F HX 102  
RANDOLPH AFB PTSUNNY 94 71 48 S10 29.87F HX 101  
PT SAN ANTONIO MOSUNNY 96 70 42 S7G16 29.86F HX 103  
SAN ANTONIO PTSUNNY 95 69 42 S14 29.88F HX 100  
STINSON FIELD MOSUNNY 96 72 45 SW10G18 29.85F HX 104  
*LA GRANGE PTSUNNY 93 77 60 SW5 29.86F HX 106  
*GIDDINGS MOSUNNY 91 73 53 SW7 29.89F HX 99  
*GONZALES MOSUNNY 93 76 56 SW6 29.86F HX 106  

 
 
TXZ163>164-176>182-195>201-210>213-226-227-235-222100-  
SOUTHEAST TEXAS  
 
CITY SKY/WX TMP DP RH WIND PRES REMARKS
 
COLLEGE STN MOSUNNY 92 76 59 SW6 29.87F HX 104  
*BRYAN MOSUNNY 91 75 59 SW8 29.88F HX 102  
*CALDWELL MOSUNNY 93 75 55 W9 29.87F HX 104  
*CROCKETT MOSUNNY 93 75 55 SW8 29.89F HX 104  
*BRENHAM MOSUNNY 93 74 53 S8 29.88F HX 103  
HUNTSVILLE MOSUNNY 93 75 55 VRB6 29.88F HX 104  
CONROE PTSUNNY 91 77 63 S8 29.88F HX 104  
HOUSTON BUSH FAIR 93 76 57 VRB7 29.87F HX 105  
HOUSTON HOBBY PTSUNNY 93 77 59 SW9 29.86F HX 107  
*HOUSTON SW AP FAIR 92 78 62 W5 29.88F HX 106  
PEARLAND PTSUNNY 92 76 59 W8 29.88F HX 104  
HOUSTON HOOKS PTSUNNY 92 77 61 SW8 29.88F HX 105  
ELLINGTON FLD PTSUNNY 93 79 62 SW5 29.90F HX 110  
SUGAR LAND FAIR 96 77 54 S7 29.87F HX 111  
*HOUSTON EXEC N/A 93 77 59 SW10 29.89F HX 107  
*CLEVELAND MUN FAIR 92 70 47 SW5 29.89F HX 98  
*WHARTON MOSUNNY 91 75 59 S8 29.89F HX 101  
*COLUMBUS PTSUNNY 92 74 54 S7 29.88F HX 102  
*EAGLE LAKE PTCLDY 94 77 57 SW8 29.87F HX 109  

 
 
TXZ214>216-236>238-222100-  
THE UPPER TEXAS COAST  
 
CITY SKY/WX TMP DP RH WIND PRES REMARKS
 
*ORANGE PTSUNNY 88 80 77 S14 29.89F HX 104  
PORT ARTHUR PTSUNNY 90 78 68 S17G25 29.87F HX 104  
GALVESTON FAIR 86 80 82 S18 29.91F HX 101  
ANGLETON PTSUNNY 91 79 67 S15 29.89F HX 107  
*BAY CITY CLOUDY 89 78 69 S10 29.89F HX 103  
PALACIOS MOSUNNY 88 80 77 S15 29.89F HX 104  

 
 
TXZ229>234-239>247-222100-  
TEXAS COASTAL BEND AND RIO GRANDE PLAINS  
 
CITY SKY/WX TMP DP RH WIND PRES REMARKS
 
VICTORIA MOSUNNY 92 76 59 S14G20 29.87F HX 104  
*BEEVILLE PTSUNNY 91 75 59 S7 29.87F HX 102  
ROCKPORT SUNNY 88 77 69 S13G20 29.87F HX 100  
*PORT ARANSAS MOSUNNY 86 78 77 SE13 29.90F HX 99  
*PORT LAVACA MOSUNNY 90 76 63 S10 29.89F HX 102  
*INGLESIDE MOSUNNY 90 79 69 S14 29.88F HX 105  
CORPUS CHRISTI PTSUNNY 89 81 77 SE14 29.87F HX 108  
CORPUS NAS MOSUNNY 90 80 72 S15 29.88F HX 107  
*ROBSTOWN PTSUNNY 89 78 70 S10G16 29.87F HX 102  
ALICE PTSUNNY 93 73 52 S9 29.86F HX 102  
KINGSVILLE NAS PTSUNNY 94 77 57 SE13 29.87F HX 108  
COTULLA MOSUNNY 96 70 42 SE12G17 29.85F HX 102  
LAREDO MOSUNNY 95 73 49 SE13G22 29.87F HAZE HX 105  

 
 
TXZ248>255-222100-  
DEEP SOUTH TEXAS  
 
CITY SKY/WX TMP DP RH WIND PRES REMARKS
 
BROWNSVILLE PTSUNNY 91 76 61 SE13 29.89F HX 103  
PORT ISABEL FAIR 89 76 65 SE18 29.88F HX 100  
*SOUTH PADRE NOT AVBL  
HARLINGEN PTSUNNY 92 79 65 SE14 29.87F HX 108  
*HEBBRONVILLE PTSUNNY 90 71 53 S8 29.89F HX 96  
MCALLEN MOSUNNY 93 79 63 S8 29.87F HX 110  
*WESLACO NOT AVBL  
FALFURRIAS SUNNY 93 73 52 SE5 29.86F HX 102  
EDINBURG FAIR 94 75 52 SE13 29.87F HX 105  
*ZAPATA PTSUNNY 91 72 52 S7 29.87F HX 98  

 
 
TXZ213>215-236>238-242>244-246-247-251-254-255-222100-  
CMAN STATIONS  
 
STATION/POSITION TIME TEMP WIND PRES WAVE
 
AIR SEA DIR/SP/G HT/PER  
(UTC) (F) (DEG/KT/KT) (MB) (FT/S)  
SABINE PASS 1936 85 86 190/ 12/ 16 1014.1  
SEA RIM ST PARK 2000 85 200/ 13/ 16 1012.8  
NORTH JETTY/GLS 1936 83 84 180/ 15/ 16 1012.2  
EAGLE POINT 1948 86 85 210/ 14/ 16 1012.0  
MORGANS POINT 1936 89 85 150/ 8/ 11 1011.7  
MISSION/ARANSAS 1900 140/ 8 1013.0  
PORT O'CONNOR 1936 83 83 170/ 11/ 14 1012.3  
PORT ARANSAS 2000 83 84 140/ 13/ 15 1012.0  
MALAQUITE BEACH 1936 82 84 130/ 14/ 16 1011.8  
BAFFIN BAY 1936 84 87 120/ 14/ 16 1012.5  
PORT ISABEL 1936 84 83 130/ 12/ 18 1012.6  

 
 
 
CLICK HERE TO GO TO PREVIOUS BULLETINS.

The Nexlab TX Page Main Text Page